User: anonymous   Login
Location: Unspecified
(52.4361°N, 0.0000°E)
Time: 10:59:58
(UTC+00:00)
Language:

nSIGHT-1 - Orbit

View from above orbital plane
View from above orbital plane
View from above satellite
View from above satellite

Ground track
Ground track

The orbit data is extracted from the following two-line orbital elements,

1 42726U 98067MF  19198.13085938  .00016081  00000-0  12348-3 0  9993
2 42726  51.6346 163.1489 0003573 296.3085  63.7546 15.72237305122293
Epoch (UTC): 17 July 2019 03:08:26
Eccentricity: 0.0003573
inclination: 51.6346°
perigee height: 350 km
apogee height: 355 km
right ascension of ascending node: 163.1489°
argument of perigee: 296.3085°
revolutions per day: 15.72237305
mean anomaly at epoch: 63.7546°
orbit number at epoch: 12229

The dashed part of the orbit path shows where the satellite is in the earth's shadow,  

DLR